User: anonymous   Login
Location: Unspecified
(0.0000°N, 0.0000°E)
Time: 06:59:09
(UTC+01:00)
Language:

Envisat - Orbit

View from above orbital plane
View from above orbital plane
View from above satellite
View from above satellite

Ground track
Ground track

The orbit data is extracted from the following two-line orbital elements,

1 27386U 02009A   18343.66918203 -.00000006  00000-0  11662-4 0  9998
2 27386  98.1670   9.2960 0001338  92.7611  16.1664 14.37936282878749
Epoch (UTC): 09 December 2018 16:03:37
Eccentricity: 0.0001338
inclination: 98.1670°
perigee height: 764 km
apogee height: 766 km
right ascension of ascending node: 9.2960°
argument of perigee: 92.7611°
revolutions per day: 14.37936282
mean anomaly at epoch: 16.1664°
orbit number at epoch: 87874

The dashed part of the orbit path shows where the satellite is in the earth's shadow,  

DLR